PTCMS SBTE-SBPS

Flight info

Callsign PTCMS
Flight time N/A
Altitude FL360
Route ILSOL OPMET OGVAL URUVA DENDE
Aircraft A320/M-SDE3FGHIRWY/LB1

Departure

Time 2026-05-07 02:06
Airport Senador Petrônio Portela Airport (SBTE)

Arrival

Time N/A
Airport Porto Seguro International Airport (SBPS)
Time Latitude Longitude Altitude Speed Heading
2026-05-07 01:49 -5.06416 -42.82164 215 ft 0 kts 131°
2026-05-07 01:55 -5.06408 -42.82173 221 ft 2 kts 131°
2026-05-07 01:56 -5.06399 -42.82183 217 ft 2 kts 182°
2026-05-07 01:56 -5.06387 -42.82177 220 ft 2 kts 258°
2026-05-07 01:56 -5.06386 -42.82175 219 ft 0 kts 274°
2026-05-07 01:58 -5.06385 -42.82175 219 ft 1 kts 276°
2026-05-07 01:58 -5.06380 -42.82189 217 ft 4 kts 289°
2026-05-07 01:59 -5.06369 -42.82252 216 ft 10 kts 270°
2026-05-07 01:59 -5.06369 -42.82308 217 ft 6 kts 278°
2026-05-07 01:59 -5.06362 -42.82323 223 ft 5 kts 305°
2026-05-07 02:00 -5.06355 -42.82329 220 ft 5 kts 321°
2026-05-07 02:00 -5.06344 -42.82334 217 ft 4 kts 338°
2026-05-07 02:00 -5.06331 -42.82337 217 ft 4 kts 346°
2026-05-07 02:00 -5.06256 -42.82346 217 ft 18 kts 355°
2026-05-07 02:01 -5.06121 -42.82359 216 ft 20 kts 351°
2026-05-07 02:01 -5.05975 -42.82377 215 ft 22 kts 355°
2026-05-07 02:01 -5.05823 -42.82392 218 ft 23 kts 352°
2026-05-07 02:01 -5.05662 -42.82410 216 ft 24 kts 354°
2026-05-07 02:02 -5.05490 -42.82427 217 ft 25 kts 355°
2026-05-07 02:02 -5.05315 -42.82445 225 ft 25 kts 354°
2026-05-07 02:02 -5.05184 -42.82458 215 ft 11 kts 355°
2026-05-07 02:02 -5.05114 -42.82461 221 ft 9 kts
2026-05-07 02:03 -5.05058 -42.82439 218 ft 8 kts 19°
2026-05-07 02:03 -5.05029 -42.82461 215 ft 6 kts 261°
2026-05-07 02:03 -5.05054 -42.82472 217 ft 3 kts 176°
2026-05-07 02:03 -5.05059 -42.82472 215 ft 0 kts 176°
2026-05-07 02:05 -5.05066 -42.82471 215 ft 7 kts 176°
2026-05-07 02:05 -5.05292 -42.82449 221 ft 72 kts 173°
2026-05-07 02:05 -5.06060 -42.82360 219 ft 146 kts 175°
2026-05-07 02:05 -5.07192 -42.82266 626 ft 170 kts 179°
2026-05-07 02:06 -5.08405 -42.82235 1321 ft 180 kts 181°
2026-05-07 02:06 -5.09651 -42.82192 2001 ft 179 kts 177°
2026-05-07 02:06 -5.10872 -42.82034 2650 ft 176 kts 170°
2026-05-07 02:06 -5.12036 -42.81693 3275 ft 173 kts 164°
2026-05-07 02:07 -5.13199 -42.81410 3818 ft 173 kts 173°
2026-05-07 02:07 -5.15703 -42.81125 4550 ft 197 kts 178°
2026-05-07 02:07 -5.17128 -42.81002 4860 ft 214 kts 177°
2026-05-07 02:08 -5.18666 -42.80848 5164 ft 233 kts 176°
2026-05-07 02:08 -5.20342 -42.80668 5610 ft 251 kts 176°
2026-05-07 02:08 -5.21008 -42.80594 5793 ft 257 kts 175°
2026-05-07 02:09 -5.21536 -42.80534 5942 ft 262 kts 175°
2026-05-07 02:09 -5.23370 -42.80325 6628 ft 269 kts 175°
2026-05-07 02:09 -5.25236 -42.80105 7423 ft 272 kts 175°
2026-05-07 02:09 -5.27118 -42.79878 8209 ft 275 kts 175°
2026-05-07 02:10 -5.29022 -42.79647 8972 ft 278 kts 175°
2026-05-07 02:10 -5.30948 -42.79416 9720 ft 281 kts 175°
2026-05-07 02:10 -5.32911 -42.79181 10319 ft 291 kts 175°
2026-05-07 02:10 -5.34969 -42.78937 10693 ft 307 kts 175°
2026-05-07 02:11 -5.37142 -42.78677 11041 ft 324 kts 175°
2026-05-07 02:11 -5.39424 -42.78400 11511 ft 334 kts 175°
2026-05-07 02:11 -5.41740 -42.78118 12175 ft 338 kts 175°
2026-05-07 02:11 -5.44083 -42.77835 12849 ft 341 kts 175°
2026-05-07 02:12 -5.46444 -42.77551 13497 ft 344 kts 175°
2026-05-07 02:12 -5.48829 -42.77263 14128 ft 347 kts 175°
2026-05-07 02:12 -5.51233 -42.76972 14743 ft 351 kts 175°
2026-05-07 02:12 -5.53662 -42.76677 15347 ft 354 kts 175°
2026-05-07 02:13 -5.56112 -42.76379 15933 ft 357 kts 175°
2026-05-07 02:13 -5.58579 -42.76080 16506 ft 360 kts 176°
2026-05-07 02:13 -5.61067 -42.75779 17068 ft 363 kts 176°
2026-05-07 02:13 -5.63581 -42.75477 17618 ft 366 kts 176°
2026-05-07 02:14 -5.66106 -42.75175 18159 ft 368 kts 176°
2026-05-07 02:14 -5.68660 -42.74869 18692 ft 371 kts 176°
2026-05-07 02:14 -5.71229 -42.74560 19212 ft 374 kts 176°
2026-05-07 02:14 -5.73819 -42.74247 19730 ft 377 kts 176°
2026-05-07 02:15 -5.76426 -42.73932 20250 ft 380 kts 176°
2026-05-07 02:15 -5.79056 -42.73613 20749 ft 383 kts 176°
2026-05-07 02:15 -5.81707 -42.73292 21241 ft 386 kts 176°
2026-05-07 02:15 -5.84372 -42.72968 21726 ft 388 kts 176°
2026-05-07 02:16 -5.87061 -42.72642 22188 ft 391 kts 176°
2026-05-07 02:16 -5.89761 -42.72315 22636 ft 394 kts 176°
2026-05-07 02:16 -5.92485 -42.71986 23071 ft 396 kts 176°
2026-05-07 02:16 -5.95226 -42.71654 23488 ft 399 kts 176°
2026-05-07 02:17 -5.97982 -42.71319 23893 ft 401 kts 176°
2026-05-07 02:17 -6.00754 -42.70984 24285 ft 403 kts 176°
2026-05-07 02:17 -6.03544 -42.70649 24662 ft 406 kts 176°
2026-05-07 02:17 -6.06343 -42.70312 25029 ft 408 kts 176°
2026-05-07 02:18 -6.09164 -42.69971 25365 ft 410 kts 176°
2026-05-07 02:18 -6.11999 -42.69629 25730 ft 412 kts 176°
2026-05-07 02:18 -6.14849 -42.69285 26070 ft 414 kts 176°
2026-05-07 02:18 -6.17713 -42.68938 26395 ft 416 kts 176°
2026-05-07 02:19 -6.20586 -42.68587 26722 ft 418 kts 176°
2026-05-07 02:19 -6.22511 -42.68352 26930 ft 420 kts 176°